Stations météo

Publicité
Lyon/Bron, France (7480): Température de l'air & dewpoint: 19.06.2017 19:00:00 - 25.06.2017 19:00:00 (CEST)Lyon/Bron, France (7480): Température de l'air 5cm: 19.06.2017 19:00:00 - 25.06.2017 19:00:00 (CEST)Lyon/Bron, France (7480): Température de l'air -20cm: 19.06.2017 19:00:00 - 25.06.2017 19:00:00 (CEST)Lyon/Bron, France (7480): Vitesse du vent & gusts: 19.06.2017 19:00:00 - 25.06.2017 19:00:00 (CEST)Lyon/Bron, France (7480): Direction du vent: 19.06.2017 19:00:00 - 25.06.2017 19:00:00 (CEST)Lyon/Bron, France (7480): reduced air pressure: 19.06.2017 19:00:00 - 25.06.2017 19:00:00 (CEST)Lyon/Bron, France (7480): visibility: 19.06.2017 19:00:00 - 25.06.2017 19:00:00 (CEST)Lyon/Bron, France (7480): Ensoleillement: 19.06.2017 19:00:00 - 25.06.2017 19:00:00 (CEST)Lyon/Bron, France (7480): Quantités de précipitations: 19.06.2017 19:00:00 - 25.06.2017 19:00:00 (CEST)
Date & Time tt [°C] td [°C] tt 5cm [°C] tt -20cm [°C] ff [km/h] ff [knt] fx [km/h] fx [knt] dd ppp [hPa] vv [km] sd [min] rr [mm]
25.06.2017 19:00:00 28,2 11,3 31,5 27,6 13 7 27 14 N 1014,6 60 60 0,0
25.06.2017 18:00:00 28,4 11,9 32,6 27,3 16 9 33 18 NNE 1014,8 49 60 0,0
25.06.2017 17:00:00 28,7 10,8 33,1 27,1 12 6 27 15 NNE 1015,2 55 60 0,0
25.06.2017 16:00:00 27,9 12,7 28,2 26,7 13 7 26 14 N 1015,9 40 54 0,0
25.06.2017 15:00:00 26,5 12,2 28,7 26,6 14 7 27 15 N 1016,4 56 52 0,0
25.06.2017 14:00:00 26,4 13,5 30,0 26,4 8 4 23 13 NW 1017,1 60 54 0,0
25.06.2017 13:00:00 25,0 13,5 26,7 26,3 11 6 30 16 N 1017,6 57 22 0,0
25.06.2017 12:00:00 24,8 14,0 25,5 26,4 13 7 25 14 NNE 1017,8 60 58 0,0
25.06.2017 11:00:00 23,0 13,5 23,7 26,5 12 6 23 12 NNE 1018,4 60 32 0,0
25.06.2017 10:00:00 22,3 13,1 23,0 26,7 13 7 24 13 N 1018,5 53 1 0,0
25.06.2017 09:00:00 21,9 13,3 20,6 26,9 13 7 27 14 NW 1018,1 57 32 0,0
25.06.2017 08:00:00 20,6 13,1 20,4 27,2 14 8 27 15 NW 1017,7 60 44 0,0
25.06.2017 07:00:00 20,7 13,9 20,0 27,4 21 11 31 17 WNW 1017,6 60 0 0,0
25.06.2017 06:00:00 20,3 18,1 19,5 27,6 5 3 8 5 WSW 1017,4 20 0 0,0
25.06.2017 05:00:00 20,4 18,2 19,8 27,9 0 0 3 2 N 1017,2 28 0 0,0
25.06.2017 04:00:00 20,1 18,2 19,1 28,1 0 0 6 3 N 1017,5 37 0 0,0
25.06.2017 03:00:00 19,8 17,9 19,0 28,4 0 0 5 3 N 1017,9 32 0 0,0
25.06.2017 02:00:00 19,8 17,8 19,0 28,7 0 0 11 6 N 1017,9 20 0 0,0
25.06.2017 01:00:00 20,4 17,6 18,7 28,9 5 3 18 10 SE 1017,8 44 0 0,8
25.06.2017 00:00:00 20,7 17,7 18,2 29,1 14 8 29 16 N 1016,8 11 0 4,5
24.06.2017 23:00:00 23,9 15,1 23,3 29,2 16 8 30 16 N 1016,6 20 0 0,0
24.06.2017 22:00:00 26,5 15,2 26,0 29,2 16 8 24 13 N 1015,6 47 0 0,0
24.06.2017 21:00:00 27,3 15,3 26,9 29,2 15 8 24 13 N 1015,0 48 0 0,0
24.06.2017 20:00:00 28,8 15,3 29,6 29,1 16 9 24 13 NNE 1014,9 47 31 0,0
24.06.2017 19:00:00 29,6 15,0 30,8 28,8 17 9 29 16 NNE 1014,5 48 31 0,0
24.06.2017 18:00:00 30,3 15,2 33,4 28,4 11 6 28 15 NNE 1014,9 50 60 0,0
24.06.2017 17:00:00 30,5 15,0 35,9 28,1 8 4 24 13 N 1015,4 58 60 0,0
24.06.2017 16:00:00 29,8 15,9 36,0 27,8 9 5 26 14 NE 1016,0 53 60 0,0
24.06.2017 15:00:00 29,2 15,3 35,1 27,5 10 5 25 14 NNW 1016,9 46 60 0,0
24.06.2017 14:00:00 28,4 16,3 30,1 27,3 8 4 27 15 NNW 1017,9 53 47 0,0
24.06.2017 13:00:00 27,3 17,2 30,3 27,2 13 7 28 15 N 1018,3 32 50 0,0
24.06.2017 12:00:00 27,4 16,7 28,3 27,1 12 7 32 17 N 1018,7 46 40 0,0
24.06.2017 11:00:00 25,7 16,5 27,8 27,2 13 7 25 14 N 1019,3 21 25 0,0
24.06.2017 10:00:00 24,8 16,8 25,9 27,3 10 5 22 12 N 1019,5 31 29 0,0
24.06.2017 09:00:00 24,3 16,6 24,7 27,5 16 9 23 13 NNW 1019,8 27 5 0,0
24.06.2017 08:00:00 23,9 16,9 23,6 27,6 12 6 21 11 N 1019,5 32 0 0,0
24.06.2017 07:00:00 23,5 16,8 22,2 27,9 10 5 19 10 NNW 1019,5 30 0 0,0
24.06.2017 06:00:00 23,0 17,5 22,1 28,0 4 2 16 8 N 1019,4 18 0 0,0
24.06.2017 05:00:00 23,5 17,5 22,9 28,2 12 7 19 10 NNW 1019,4 24 0 0,0
24.06.2017 04:00:00 24,0 17,7 23,3 28,4 11 6 21 11 N 1019,7 23 0 0,0
24.06.2017 03:00:00 24,4 17,9 23,8 28,7 13 7 24 13 N 1019,8 23 0 0,0
24.06.2017 02:00:00 25,0 18,0 24,6 28,8 14 7 22 12 N 1020,0 25 0 0,0
24.06.2017 01:00:00 25,4 18,3 25,1 29,0 11 6 22 12 N 1019,8 26 0 0,0
24.06.2017 00:00:00 25,6 18,5 25,2 29,2 11 6 22 12 N 1019,6 25 0 0,0
23.06.2017 23:00:00 26,0 18,9 25,5 29,3 17 9 24 13 N 1019,2 28 0 0,0
23.06.2017 22:00:00 26,6 19,0 25,9 29,4 18 10 27 15 NNW 1018,3 31 0 0,0
23.06.2017 21:00:00 27,4 19,5 26,4 29,3 18 10 37 20 N 1017,6 22 1 0,0
23.06.2017 20:00:00 29,5 19,8 29,5 29,2 14 8 32 18 N 1017,6 20 3 0,0
23.06.2017 19:00:00 30,6 19,9 31,1 29,0 23 12 42 23 N 1016,5 19 45 0,0
23.06.2017 18:00:00 33,7 20,5 36,7 28,6 24 13 37 20 N 1015,5 19 60 0,0
23.06.2017 17:00:00 35,6 17,8 38,5 28,2 14 8 29 16 NE 1015,2 19 58 0,0
23.06.2017 16:00:00 35,4 17,1 39,3 27,9 10 5 19 10 N 1015,7 20 60 0,0
23.06.2017 15:00:00 35,4 16,7 40,8 27,5 5 3 19 10 NE 1016,2 20 60 0,0
23.06.2017 14:00:00 34,6 17,3 39,5 27,2 5 3 13 7 W 1016,6 38 60 0,0
23.06.2017 13:00:00 33,0 18,0 34,4 27,0 4 2 14 8 NW 1017,2 20 47 0,0
23.06.2017 12:00:00 32,4 17,5 37,9 26,9 5 3 15 8 WSW 1017,3 47 60 0,0
23.06.2017 11:00:00 30,9 17,9 34,9 26,9 5 3 11 6 WSW 1018,0 20 60 0,0
23.06.2017 10:00:00 28,9 19,2 30,3 27,0 3 1 13 7 WSW 1018,2 26 46 0,0
23.06.2017 09:00:00 26,5 20,1 26,7 27,1 6 4 12 7 S 1018,2 20 31 0,0
23.06.2017 08:00:00 25,2 20,7 24,4 27,3 7 4 12 6 SSW 1017,8 17 47 0,0
23.06.2017 07:00:00 23,8 20,5 22,0 27,5 5 3 11 6 SSE 1017,3 17 1 0,0
23.06.2017 06:00:00 23,3 20,2 22,0 27,7 3 2 8 5 SE 1017,1 16 0 0,0
23.06.2017 05:00:00 23,8 20,3 21,6 27,9 3 2 11 6 SSE 1016,8 18 0 0,0
23.06.2017 04:00:00 24,1 20,4 22,9 28,1 6 3 17 9 SSE 1016,6 20 0 0,0
23.06.2017 03:00:00 24,9 20,6 23,1 28,3 6 4 11 6 SSE 1016,4 21 0 0,0
23.06.2017 02:00:00 25,8 20,8 23,6 28,5 6 3 13 7 SSW 1016,5 20 0 0,0
23.06.2017 01:00:00 26,8 20,6 25,2 28,7 5 3 16 9 S 1016,3 19 0 0,0
23.06.2017 00:00:00 27,8 20,6 26,3 28,8 12 6 23 12 SSW 1015,9 16 0 0,0
22.06.2017 23:00:00 28,5 20,2 27,5 29,0 17 9 32 18 S 1015,0 16 0 0,0
22.06.2017 22:00:00 29,5 20,4 28,6 29,0 21 11 37 20 S 1014,7 17 0 0,0
22.06.2017 21:00:00 31,3 20,0 30,7 28,9 18 10 31 17 S 1014,1 24 14 0,0
22.06.2017 20:00:00 33,1 18,8 33,4 28,8 21 11 34 19 S 1013,7 38 60 0,0
22.06.2017 19:00:00 34,8 17,1 36,6 28,5 22 12 35 19 S 1013,4 36 60 0,0
22.06.2017 18:00:00 35,7 18,8 38,7 28,2 21 11 32 18 S 1013,1 36 60 0,0
22.06.2017 17:00:00 36,1 16,8 40,1 27,7 16 9 29 16 SSE 1013,5 36 60 0,0
22.06.2017 16:00:00 36,2 16,9 40,9 27,3 13 7 25 13 SSE 1013,6 59 60 0,0
22.06.2017 15:00:00 35,5 15,8 40,4 26,9 9 5 20 11 SSE 1014,0 19 60 0,0
22.06.2017 14:00:00 34,3 18,8 39,3 26,6 11 6 22 12 S 1014,8 28 60 0,0
22.06.2017 13:00:00 33,0 19,8 38,0 26,4 10 5 22 12 S 1015,3 20 60 0,0
22.06.2017 12:00:00 31,3 20,6 35,3 26,3 11 6 19 11 SSE 1015,8 20 60 0,0
22.06.2017 11:00:00 29,2 20,6 32,6 26,2 11 6 22 12 SSE 1016,0 16 60 0,0
22.06.2017 10:00:00 27,6 20,9 29,8 26,3 16 9 26 14 S 1016,3 17 60 0,0
22.06.2017 09:00:00 25,9 21,1 26,5 26,5 13 7 23 12 S 1016,2 16 60 0,0
22.06.2017 08:00:00 24,5 20,6 23,0 26,6 13 7 22 12 S 1016,0 14 60 0,0
22.06.2017 07:00:00 23,0 20,7 21,3 26,8 6 3 11 6 S 1015,8 12 31 0,0
22.06.2017 06:00:00 22,5 20,2 20,8 27,1 5 3 8 4 SE 1015,6 12 0 0,0
22.06.2017 05:00:00 22,7 19,9 20,1 27,3 5 3 8 4 SE 1015,3 14 0 0,0
22.06.2017 04:00:00 23,3 19,9 20,6 27,5 5 3 8 5 ESE 1015,2 15 0 0,0
22.06.2017 03:00:00 24,0 19,3 21,0 27,7 0 0 7 4 N 1015,2 20 0 0,0
22.06.2017 02:00:00 25,2 19,6 22,5 27,9 2 1 9 5 SSW 1015,1 20 0 0,0
22.06.2017 01:00:00 26,2 18,6 24,0 28,1 0 0 8 4 N 1015,0 31 0 0,0
22.06.2017 00:00:00 26,9 18,5 25,0 28,2 5 3 14 8 S 1015,0 35 0 0,0
21.06.2017 23:00:00 28,2 17,7 24,1 28,3 13 7 18 10 S 1014,6 40 0 0,0
21.06.2017 22:00:00 30,3 16,3 27,2 28,4 4 2 10 5 NE 1014,0 49 0 0,0
21.06.2017 21:00:00 32,0 16,7 30,6 28,3 6 3 18 10 N 1013,5 46 11 0,0
21.06.2017 20:00:00 34,0 16,4 35,4 28,1 9 5 20 11 N 1012,8 52 60 0,0
21.06.2017 19:00:00 35,0 15,8 36,1 27,9 10 6 19 11 NNE 1012,4 48 60 0,0
21.06.2017 18:00:00 35,3 14,0 39,4 27,5 9 5 19 10 N 1012,3 53 60 0,0
21.06.2017 17:00:00 35,5 15,8 39,6 27,1 11 6 25 14 N 1012,3 58 60 0,0
21.06.2017 16:00:00 35,3 12,9 40,4 26,6 13 7 21 12 NNE 1012,6 45 60 0,0
21.06.2017 15:00:00 34,6 16,9 39,7 26,2 8 5 18 10 S 1013,3 35 60 0,0
21.06.2017 14:00:00 33,0 17,6 38,5 25,8 4 2 14 7 WSW 1014,0 41 60 0,0
21.06.2017 13:00:00 31,8 18,0 37,2 25,6 6 3 16 8 ESE 1014,7 36 60 0,0
21.06.2017 12:00:00 30,3 17,7 35,3 25,4 8 4 18 10 S 1015,2 29 60 0,0
21.06.2017 11:00:00 28,5 18,3 32,1 25,4 8 4 21 11 SSW 1015,4 19 60 0,0
21.06.2017 10:00:00 26,4 17,7 29,1 25,5 9 5 18 10 SSE 1015,5 23 60 0,0
21.06.2017 09:00:00 25,3 17,7 26,1 25,6 8 5 15 8 S 1015,6 34 60 0,0
21.06.2017 08:00:00 23,8 17,3 23,1 25,8 9 5 14 8 S 1015,6 35 55 0,0
21.06.2017 07:00:00 22,9 17,1 20,7 25,9 8 4 13 7 SE 1015,3 30 40 0,0
21.06.2017 06:00:00 22,8 15,9 21,3 26,1 5 3 22 12 ESE 1015,4 45 0 0,0
21.06.2017 05:00:00 23,5 16,0 22,3 26,3 13 7 19 10 S 1014,7 53 0 0,0
21.06.2017 04:00:00 24,2 16,7 22,8 26,5 6 3 16 9 SSE 1015,1 50 0 0,0
21.06.2017 03:00:00 24,5 16,5 23,2 26,6 8 4 14 8 SSE 1015,3 52 0 0,0
21.06.2017 02:00:00 25,4 16,3 24,3 26,8 7 4 21 12 S 1015,6 53 0 0,0
21.06.2017 01:00:00 26,2 16,7 25,0 26,9 14 7 26 14 S 1015,4 54 0 0,0
21.06.2017 00:00:00 27,0 16,6 26,0 27,1 13 7 24 13 S 1015,3 55 0 0,0
20.06.2017 23:00:00 27,7 16,6 26,5 27,1 16 9 25 13 S 1015,5 54 0 0,0
20.06.2017 22:00:00 28,6 16,8 27,5 27,2 14 7 22 12 S 1015,1 52 0 0,0
20.06.2017 21:00:00 29,7 16,5 28,8 27,2 14 8 24 13 SSE 1014,6 49 0 0,0
20.06.2017 20:00:00 31,7 17,2 32,0 27,1 14 8 23 12 S 1014,0 57 27 0,0
20.06.2017 19:00:00 32,2 15,7 32,3 26,8 10 6 22 12 SSE 1013,9 60 8 0,0
20.06.2017 18:00:00 33,8 14,3 36,1 26,4 14 8 25 14 S 1014,1 60 60 0,0
20.06.2017 17:00:00 34,2 15,1 38,3 26,0 12 6 25 13 SSE 1014,3 60 60 0,0
20.06.2017 16:00:00 34,0 15,0 38,4 25,5 13 7 27 15 SSE 1014,9 60 60 0,0
20.06.2017 15:00:00 33,0 14,1 37,6 25,1 12 6 30 16 S 1015,6 60 60 0,0
20.06.2017 14:00:00 32,5 13,7 36,7 24,8 11 6 28 15 S 1016,0 60 60 0,0
20.06.2017 13:00:00 31,3 13,1 35,5 24,5 16 8 29 16 S 1016,8 60 60 0,0
20.06.2017 12:00:00 30,4 13,2 33,7 24,4 20 11 34 18 S 1017,2 60 60 0,0
20.06.2017 11:00:00 28,8 12,7 31,6 24,3 19 10 30 16 S 1017,6 60 60 0,0
20.06.2017 10:00:00 27,0 12,6 28,0 24,4 13 7 27 15 S 1017,8 31 60 0,0
20.06.2017 09:00:00 25,3 12,8 25,7 24,6 16 9 28 15 S 1017,9 20 60 0,0
20.06.2017 08:00:00 23,9 12,8 20,7 24,7 16 9 26 14 S 1017,8 37 60 0,0
20.06.2017 07:00:00 21,6 12,4 17,2 25,0 7 4 16 8 S 1018,0 55 47 0,0
20.06.2017 06:00:00 21,2 11,8 17,7 25,2 6 3 17 9 SSE 1017,9 60 0 0,0
20.06.2017 05:00:00 21,6 11,6 17,3 25,3 9 5 18 10 S 1018,0 60 0 0,0
20.06.2017 04:00:00 21,8 12,6 18,6 25,6 13 7 24 13 S 1018,0 60 0 0,0
20.06.2017 03:00:00 22,8 12,7 20,6 25,8 16 9 37 20 S 1018,0 60 0 0,0
20.06.2017 02:00:00 23,9 12,5 22,3 25,9 22 12 36 19 S 1017,7 60 0 0,0
20.06.2017 01:00:00 24,6 12,5 23,0 26,1 22 12 43 23 S 1017,6 60 0 0,0
20.06.2017 00:00:00 25,5 12,3 24,2 26,3 25 14 47 26 S 1017,2 60 0 0,0
19.06.2017 23:00:00 26,6 11,9 25,3 26,4 25 13 48 26 S 1016,7 60 0 0,0
19.06.2017 22:00:00 27,6 12,4 26,2 26,5 25 13 45 24 S 1016,3 60 4 0,0
19.06.2017 21:00:00 29,1 12,5 28,3 26,5 24 13 48 26 S 1015,8 42 60 0,0
19.06.2017 20:00:00 30,8 13,1 31,7 26,3 26 14 49 27 S 1015,6 27 60 0,0
19.06.2017 19:00:00 31,9 13,6 33,7 26,2 27 14 46 25 S 1015,4 27 60 0,0

tt = Température de l'air
td = dewpoint
tt 5cm = Température de l'air 5cm
tt -20cm = Température de l'air -20cm
ff = Vitesse du vent
fx = gusts
dd = Direction du vent
ppp = reduced air pressure
vv = visibility
sd = Ensoleillement
rr = Quantités de précipitations

stations d'obs. à proximité